This is the latest recevied weather packets stored in our database for station/object GBTWP-2. If no packets are shown the sender has not sent any weather packets the latest 10 day(s).
| Time | Temp. | Humidity | Pressure | Rain* | Wind** | Luminosity | Snow |
|---|---|---|---|---|---|---|---|
| 1777986302 | 9.44° C | 68% | 1007.4 hPa | 0 mm | - | 19 W/m² | - |
| 1777985401 | 9.44° C | 70% | 1007.1 hPa | 0 mm | - | 25 W/m² | - |
| 1777984802 | 10° C | 67% | 1007.2 hPa | 0 mm | - | 23 W/m² | - |
| 1777984502 | 10° C | 67% | 1007 hPa | 0 mm | - | 15 W/m² | - |
| 1777984202 | 10° C | 69% | 1007.1 hPa | 0 mm | - | 17 W/m² | - |
| 1777983901 | 10° C | 67% | 1006.8 hPa | 0 mm | - | 48 W/m² | - |
| 1777983602 | 10° C | 68% | 1007.1 hPa | 0 mm | - | 51 W/m² | - |
| 1777983302 | 10° C | 68% | 1006.8 hPa | 0 mm | - | 44 W/m² | - |
| 1777983001 | 10° C | 72% | 1006.8 hPa | 0 mm | - | 54 W/m² | - |
| 1777982401 | 10° C | 73% | 1007 hPa | 0 mm | - | 37 W/m² | - |
| 1777981802 | 10.56° C | 75% | 1006.4 hPa | 0 mm | - | 47 W/m² | - |
| 1777981501 | 10° C | 75% | 1006.9 hPa | 0 mm | - | 48 W/m² | - |
| 1777981202 | 10° C | 77% | 1006.8 hPa | 0 mm | - | 43 W/m² | - |
| 1777980902 | 10° C | 78% | 1006.7 hPa | 0 mm | - | 32 W/m² | - |
| 1777980602 | 10° C | 78% | 1006.2 hPa | 0 mm | - | 21 W/m² | - |
| 1777980302 | 10° C | 79% | 1006.1 hPa | 0 mm | - | 18 W/m² | - |
| 1777979402 | 10.56° C | 81% | 1005.5 hPa | 0 mm | - | 15 W/m² | - |
| 1777979102 | 10.56° C | 81% | 1005.4 hPa | 0 mm | - | 15 W/m² | - |
| 1777978501 | 11.11° C | 80% | 1005.3 hPa | 0 mm | - | 11 W/m² | - |
| 1777978202 | 11.67° C | 79% | 1005.3 hPa | 0 mm | - | 8 W/m² | - |
| 1777977902 | 12.78° C | 83% | 1005.3 hPa | 0 mm | - | 6 W/m² | - |
| 1777977602 | 12.78° C | 85% | 1004.9 hPa | 0 mm | - | 3 W/m² | - |
| 1777977302 | 12.78° C | 84% | 1004.6 hPa | 0 mm | - | 3 W/m² | - |
| 1777976702 | 12.78° C | 84% | 1004.7 hPa | 0 mm | - | 1 W/m² | - |
| 1777976102 | 12.78° C | 84% | 1004.1 hPa | 0 mm | - | 0 W/m² | - |
* Rain latest hour (hover to see other rain measurements)
** Current wind speed in m/s (hover to see current wind gust speed)